TimeEST,TemperatureF,Dew PointF,Humidity,Sea Level PressureIn,VisibilityMPH,Wind Direction,Wind SpeedMPH,Gust SpeedMPH,PrecipitationIn,Events,Conditions,WindDirDegrees,DateUTC
12:15 AM,27.9,25.7,92,30.05,5.0,SSE,8.1,-,N/A,,Overcast,150,2012-12-31 05:15:00
12:35 AM,28.4,26.6,93,30.03,5.0,SSE,9.2,-,N/A,,Overcast,150,2012-12-31 05:35:00
1:15 AM,29.1,27.5,94,30.00,5.0,SE,8.1,-,N/A,,Overcast,140,2012-12-31 06:15:00
1:35 AM,28.9,27.3,94,29.99,5.0,SE,6.9,-,N/A,,Overcast,140,2012-12-31 06:35:00
1:55 AM,28.2,26.6,94,29.98,5.0,SE,5.8,-,N/A,,Mostly Cloudy,140,2012-12-31 06:55:00
2:15 AM,27.9,26.4,94,29.97,5.0,SE,5.8,-,N/A,,Clear,140,2012-12-31 07:15:00
2:35 AM,27.5,26.4,96,29.97,5.0,SSE,5.8,-,N/A,,Clear,150,2012-12-31 07:35:00
2:54 AM,27.3,26.1,95,29.96,5.0,SE,4.6,-,N/A,,Clear,140,2012-12-31 07:54:00
3:15 AM,27.5,26.2,95,29.96,7.0,SSE,3.5,-,N/A,,Clear,150,2012-12-31 08:15:00
3:34 AM,27.0,25.7,95,29.95,7.0,SE,3.5,-,N/A,,Clear,130,2012-12-31 08:34:00
3:55 AM,27.0,25.7,95,29.95,7.0,SSE,3.5,-,N/A,,Clear,150,2012-12-31 08:55:00
4:15 AM,27.1,25.9,95,29.93,7.0,SSW,9.2,-,N/A,,Clear,200,2012-12-31 09:15:00
4:35 AM,33.3,27.5,79,29.92,10.0,SSW,11.5,-,N/A,,Clear,210,2012-12-31 09:35:00
4:55 AM,33.6,27.5,78,29.92,10.0,SSW,10.4,-,N/A,,Clear,210,2012-12-31 09:55:00
5:14 AM,34.5,27.9,77,29.91,10.0,SSW,12.7,19.6,N/A,,Clear,210,2012-12-31 10:14:00
5:35 AM,35.1,27.9,75,29.92,10.0,SW,12.7,21.9,N/A,,Scattered Clouds,220,2012-12-31 10:35:00
5:54 AM,35.4,28.0,75,29.91,10.0,SW,12.7,23.0,N/A,,Mostly Cloudy,220,2012-12-31 10:54:00
6:15 AM,35.8,27.7,72,29.91,10.0,SW,13.8,20.7,N/A,,Overcast,220,2012-12-31 11:15:00
6:35 AM,36.0,27.3,71,29.91,10.0,SW,13.8,21.9,N/A,,Overcast,230,2012-12-31 11:35:00
6:55 AM,35.8,27.0,70,29.91,10.0,SW,9.2,20.7,N/A,,Overcast,230,2012-12-31 11:55:00
7:15 AM,35.6,26.6,70,29.91,10.0,WSW,15.0,20.7,N/A,,Overcast,240,2012-12-31 12:15:00
7:34 AM,35.2,26.4,70,29.91,10.0,SW,11.5,19.6,N/A,,Overcast,230,2012-12-31 12:34:00
7:55 AM,34.9,26.6,72,29.92,10.0,WSW,9.2,19.6,N/A,,Overcast,240,2012-12-31 12:55:00
8:15 AM,34.5,26.6,73,29.91,10.0,WSW,11.5,18.4,N/A,,Overcast,240,2012-12-31 13:15:00
8:35 AM,34.3,26.6,73,29.91,10.0,WSW,11.5,18.4,N/A,,Overcast,240,2012-12-31 13:35:00
8:55 AM,34.0,26.6,74,29.91,10.0,WSW,15.0,19.6,N/A,,Overcast,250,2012-12-31 13:55:00
9:15 AM,34.2,26.6,74,29.90,10.0,WSW,13.8,23.0,N/A,,Overcast,250,2012-12-31 14:15:00
9:35 AM,33.8,26.4,74,29.91,10.0,WSW,12.7,18.4,N/A,,Overcast,250,2012-12-31 14:35:00
9:55 AM,33.4,26.1,74,29.91,10.0,WSW,12.7,-,N/A,,Overcast,250,2012-12-31 14:55:00
10:14 AM,33.3,25.7,74,29.92,10.0,West,16.1,21.9,N/A,,Overcast,260,2012-12-31 15:14:00
10:35 AM,32.9,25.9,75,29.94,10.0,WSW,12.7,19.6,N/A,,Overcast,240,2012-12-31 15:35:00
10:55 AM,32.9,25.7,75,29.94,10.0,WSW,13.8,20.7,N/A,,Overcast,250,2012-12-31 15:55:00
11:15 AM,32.2,25.7,77,29.94,10.0,West,12.7,-,N/A,,Overcast,260,2012-12-31 16:15:00
11:35 AM,32.0,25.5,77,29.94,10.0,West,11.5,19.6,N/A,,Overcast,260,2012-12-31 16:35:00
11:55 AM,32.0,25.0,75,29.94,10.0,West,13.8,20.7,N/A,,Overcast,260,2012-12-31 16:55:00
12:15 PM,31.8,25.0,76,29.93,10.0,West,12.7,19.6,N/A,,Overcast,260,2012-12-31 17:15:00
12:35 PM,31.1,24.8,77,29.92,10.0,West,15.0,-,N/A,,Overcast,270,2012-12-31 17:35:00
12:55 PM,30.2,24.8,80,29.92,10.0,West,11.5,-,N/A,,Overcast,260,2012-12-31 17:55:00
1:15 PM,29.7,24.3,80,29.91,10.0,West,10.4,-,N/A,,Overcast,280,2012-12-31 18:15:00
1:35 PM,29.3,24.3,81,29.91,7.0,West,13.8,-,N/A,,Overcast,280,2012-12-31 18:35:00
1:55 PM,29.3,24.3,81,29.92,7.0,West,12.7,-,N/A,,Overcast,270,2012-12-31 18:55:00
2:15 PM,29.1,24.3,82,29.92,7.0,West,12.7,16.1,N/A,,Overcast,280,2012-12-31 19:15:00
2:35 PM,28.8,24.3,83,29.93,7.0,West,11.5,-,N/A,,Overcast,280,2012-12-31 19:35:00
2:55 PM,28.4,24.6,86,29.93,7.0,West,10.4,-,N/A,,Overcast,280,2012-12-31 19:55:00
3:15 PM,28.8,24.3,83,29.93,7.0,West,9.2,18.4,N/A,,Overcast,260,2012-12-31 20:15:00
3:35 PM,28.8,23.9,82,29.94,10.0,West,11.5,18.4,N/A,,Overcast,270,2012-12-31 20:35:00
3:55 PM,28.6,23.9,83,29.95,10.0,West,10.4,-,N/A,,Overcast,270,2012-12-31 20:55:00
4:15 PM,28.4,23.0,80,29.95,10.0,West,9.2,-,N/A,,Overcast,270,2012-12-31 21:15:00
4:35 PM,28.4,22.3,78,29.95,10.0,West,10.4,-,N/A,,Overcast,280,2012-12-31 21:35:00
4:55 PM,28.2,21.7,77,29.96,10.0,West,11.5,16.1,N/A,,Overcast,280,2012-12-31 21:55:00
5:35 PM,27.5,20.3,74,29.98,10.0,West,11.5,-,N/A,,Overcast,280,2012-12-31 22:35:00
5:54 PM,27.3,20.5,75,29.98,10.0,NW,17.3,-,N/A,,Overcast,310,2012-12-31 22:54:00
6:15 PM,26.6,19.4,74,29.99,10.0,NW,11.5,-,N/A,,Overcast,310,2012-12-31 23:15:00
6:34 PM,26.2,19.0,74,30.00,10.0,NW,9.2,-,N/A,,Overcast,310,2012-12-31 23:34:00
6:55 PM,26.1,18.7,74,30.00,10.0,NW,11.5,-,N/A,,Overcast,310,2012-12-31 23:55:00
6:59 PM,26.1,18.9,74,30.01,10.0,WNW,11.5,-,N/A,,Overcast,300,2012-12-31 23:59:00
7:35 PM,25.5,18.3,74,30.01,10.0,NW,9.2,-,N/A,,Overcast,320,2013-01-01 00:35:00
7:55 PM,25.3,17.6,72,30.01,10.0,NW,9.2,-,N/A,,Overcast,310,2013-01-01 00:55:00
8:15 PM,25.2,17.6,73,30.01,10.0,NW,4.6,-,N/A,,Overcast,310,2013-01-01 01:15:00
8:35 PM,25.3,17.6,72,30.02,10.0,WNW,6.9,-,N/A,,Overcast,290,2013-01-01 01:35:00
8:55 PM,25.3,17.6,72,30.03,10.0,WNW,8.1,-,N/A,,Overcast,300,2013-01-01 01:55:00
9:15 PM,25.2,17.1,71,30.02,10.0,WNW,5.8,-,N/A,,Overcast,300,2013-01-01 02:15:00
9:35 PM,25.0,16.9,71,30.03,10.0,WNW,5.8,-,N/A,,Overcast,290,2013-01-01 02:35:00
9:55 PM,24.8,17.1,72,30.03,10.0,NW,6.9,-,N/A,,Overcast,310,2013-01-01 02:55:00
10:15 PM,24.8,15.8,69,30.03,10.0,NW,8.1,-,N/A,,Overcast,320,2013-01-01 03:15:00
10:35 PM,24.6,16.0,70,30.03,10.0,NNW,6.9,-,N/A,,Overcast,340,2013-01-01 03:35:00
10:55 PM,24.4,15.6,69,30.03,10.0,NNW,4.6,-,N/A,,Overcast,330,2013-01-01 03:55:00
11:15 PM,24.3,14.9,68,30.03,10.0,NNW,5.8,-,N/A,,Overcast,340,2013-01-01 04:15:00
11:34 PM,23.9,14.9,69,30.03,10.0,NNW,6.9,-,N/A,,Overcast,330,2013-01-01 04:34:00
11:55 PM,23.7,15.1,70,30.04,10.0,NW,4.6,-,N/A,,Overcast,310,2013-01-01 04:55:00